Location: Steznica
(49.3330°N, 22.3330°E)
Time: 03:34:17
(UTC+01:00)

ISS - Visible Passes

Search period start: 25 January 2020 00:00
Search period end: 04 February 2020 00:00
Orbit: 415 x 423 km, 51.6° (Epoch: 25 January)

Date Brightness Start Highest point End Pass type
(mag) Time Alt. Az. Time Alt. Az. Time Alt. Az.
25 Jan -3.6 17:39:43 10° WSW 17:43:04 65° SSE 17:44:31 30° E visible
25 Jan -0.7 19:16:37 10° W 19:17:29 17° W 19:17:29 17° W visible
26 Jan -3.1 16:52:21 10° SW 16:55:36 45° SSE 16:58:51 10° ENE visible
26 Jan -3.2 18:29:01 10° W 18:31:56 56° NW 18:31:56 56° NW visible
27 Jan -3.7 17:41:25 10° WSW 17:44:49 75° NNW 17:46:22 29° ENE visible
27 Jan -0.8 19:18:29 10° WNW 19:19:20 16° WNW 19:19:20 16° WNW visible
28 Jan -3.7 16:53:51 10° WSW 16:57:15 86° SSE 17:00:39 10° ENE visible
28 Jan -3.1 18:30:53 10° W 18:33:44 49° NW 18:33:44 49° NW visible
29 Jan -3.5 17:43:15 10° W 17:46:36 57° N 17:48:08 28° ENE visible
29 Jan -0.8 19:20:14 10° WNW 19:21:06 17° WNW 19:21:06 17° WNW visible
30 Jan -3.5 16:55:37 10° W 16:58:58 64° N 17:02:21 10° ENE visible
30 Jan -3.2 18:32:39 10° WNW 18:35:30 53° NW 18:35:30 53° NW visible
31 Jan -3.5 17:45:03 10° WNW 17:48:23 57° N 17:49:55 28° ENE visible
31 Jan -0.8 19:21:54 10° WNW 19:22:53 18° WNW 19:22:53 18° WNW visible
01 Feb -3.4 16:57:24 10° W 17:00:44 55° N 17:04:04 10° E visible
01 Feb -3.5 18:34:18 10° WNW 18:37:20 68° WNW 18:37:20 68° WNW visible
02 Feb -3.8 17:46:42 10° WNW 17:50:05 75° NNE 17:51:50 26° E visible
02 Feb -0.9 19:23:41 10° W 19:24:48 18° W 19:24:48 18° W visible
03 Feb -3.6 16:59:04 10° WNW 17:02:27 63° N 17:05:48 10° E visible
03 Feb -3.0 18:35:57 10° WNW 18:39:13 46° SSW 18:39:23 45° SSW visible
